Weather History for Rexburg, ID

Change the Weather History Date:

Saturday, August 4, 2012

  Actual Average Record
Temperature  
Mean Temperature 67 °F 69 °F  
Max Temperature 86 °F 87 °F 91 °F (2001)
Min Temperature 47 °F 51 °F 46 °F (2013)
Degree Days  
Heating Degree Days 0 0  
Month to date heating degree days 0 0  
Since 1 June heating degree days 150 202  
Since 1 July heating degree days 3 30  
Cooling Degree Days 2 4  
Month to date cooling degree days 19 16  
Year to date cooling degree days 279 130  
Since 1 June cooling degree days 279 126  
Growing Degree Days 15 (Base 50)    
Moisture  
Dew Point 34 °F    
Average Humidity 42    
Maximum Humidity 71    
Minimum Humidity 12    
Precipitation  
Precipitation 0.00 in 0.02 in 0.41 in (2000)
Month to date precipitation T 0.08  
Year to date precipitation 5.90 8.04  
Sea Level Pressure  
Sea Level Pressure 30.05 in    
Wind  
Wind Speed 4 mph (NE)    
Max Wind Speed 14 mph    
Max Gust Speed 18 mph    
Visibility 10 miles    
Events      
T = Trace of Precipitation, MM = Missing Value Source: NWS Daily Summary

Daily Weather History Graph

Daily Weather History Graph

Search for Another Location

Airport:

Trip Planner

Search our weather history database for the weather conditions in past years. The results will help you decide how hot, cold, wet, or windy it might be!

Date:

Astronomy

Aug. 04, 2012 Rise Set
Actual Time 6:19 AM MDT 8:46 PM MDT
Civil Twilight 5:47 AM MDT 9:18 PM MDT
Nautical Twilight 5:06 AM MDT 9:58 PM MDT
Astronomical Twilight 4:21 AM MDT 10:43 PM MDT
Moon 9:47 PM MDT (8/4) 9:18 AM MDT (8/4)
Length of Visible Light 15h 31m
Length of Day
14h 26m
Waning Gibbous, 92% of the Moon is Illuminated
Aug 4
Waning Gibbous
Aug 9
Last Quarter
Aug 17
New
Aug 24
First Quarter
Aug 31
Full

Hourly Weather History & Observations

Time (MDT) Temp. Dew Point Humidity Pressure Visibility Wind Dir Wind Speed Gust Speed Precip Events Conditions
12:53 AM 55.9 °F 39.0 °F 53% 30.02 in 10.0 mi NE 8.1 mph - N/A   Clear
1:53 AM 52.0 °F 39.9 °F 63% 30.04 in 10.0 mi ENE 8.1 mph - N/A   Clear
2:53 AM 50.0 °F 39.9 °F 68% 30.04 in 10.0 mi ENE 9.2 mph - N/A   Clear
3:53 AM 50.0 °F 39.0 °F 66% 30.06 in 10.0 mi NE 6.9 mph - N/A   Clear
4:53 AM 48.9 °F 37.9 °F 66% 30.07 in 10.0 mi NE 4.6 mph - N/A   Clear
6:53 AM 46.9 °F 37.0 °F 68% 30.09 in 10.0 mi Calm Calm - N/A   Clear
7:53 AM 51.1 °F 37.9 °F 61% 30.09 in 10.0 mi NE 6.9 mph - N/A   Clear
8:53 AM 57.9 °F 37.0 °F 46% 30.09 in 10.0 mi NE 11.5 mph - N/A   Clear
9:53 AM 66.0 °F 36.0 °F 33% 30.09 in 10.0 mi NE 10.4 mph - N/A   Clear
10:53 AM 70.0 °F 35.1 °F 28% 30.09 in 10.0 mi NE 8.1 mph - N/A   Clear
11:53 AM 75.0 °F 35.1 °F 23% 30.08 in 10.0 mi Variable 3.5 mph - N/A   Clear
12:53 PM 77.0 °F 32.0 °F 19% 30.07 in 10.0 mi Variable 4.6 mph - N/A   Clear
1:53 PM 80.1 °F 27.0 °F 14% 30.06 in 10.0 mi North 6.9 mph - N/A   Clear
2:53 PM 82.0 °F 25.0 °F 12% 30.05 in 10.0 mi Calm Calm - N/A   Clear
3:53 PM 84.9 °F 27.0 °F 12% 30.03 in 10.0 mi Variable 3.5 mph - N/A   Clear
4:53 PM 82.9 °F 25.0 °F 12% 30.03 in 10.0 mi Calm Calm - N/A   Clear
5:53 PM 84.9 °F 26.1 °F 12% 30.01 in 10.0 mi Calm Calm - N/A   Clear
6:53 PM 84.9 °F 26.1 °F 12% 30.01 in 10.0 mi Calm Calm - N/A   Clear
7:53 PM 82.0 °F 30.9 °F 16% 30.00 in 10.0 mi Calm Calm - N/A   Clear
8:53 PM 75.0 °F 37.9 °F 26% 30.01 in 10.0 mi ENE 4.6 mph - N/A   Clear
9:53 PM 70.0 °F 37.0 °F 30% 30.01 in 10.0 mi Calm Calm - N/A   Clear
10:53 PM 62.1 °F 41.0 °F 46% 30.04 in 10.0 mi Calm Calm - N/A   Clear
11:53 PM 57.0 °F 42.1 °F 57% 30.06 in 10.0 mi NNE 4.6 mph - N/A   Clear